Weather History for Walnut Ridge, AR

Change the Weather History Date:

Tuesday, May 28, 2013

  Actual Average Record
Temperature  
Mean Temperature 79 °F -  
Max Temperature 87 °F 79 °F 95 °F (2012)
Min Temperature 71 °F 60 °F 55 °F (2003)
Cooling Degree Days 14    
Growing Degree Days 29 (Base 50)    
Moisture  
Dew Point 65 °F    
Average Humidity 65    
Maximum Humidity 83    
Minimum Humidity 40    
Precipitation  
Precipitation 0.00 in - - ()
Sea Level Pressure  
Sea Level Pressure 29.94 in    
Wind  
Wind Speed 17 mph (South)    
Max Wind Speed 25 mph    
Max Gust Speed 36 mph    
Visibility 10 miles    
Events      
Averages and records for this station are not official NWS values.
T = Trace of Precipitation, MM = Missing Value Source: NWS Daily Summary

Daily Weather History Graph

Daily Weather History Graph

Search for Another Location

Airport:

Trip Planner

Search our weather history database for the weather conditions in past years. The results will help you decide how hot, cold, wet, or windy it might be!

Date:

Astronomy

May. 28, 2013 Rise Set
Actual Time 5:49 AM CDT 8:12 PM CDT
Civil Twilight 5:19 AM CDT 8:42 PM CDT
Nautical Twilight 4:43 AM CDT 9:19 PM CDT
Astronomical Twilight 4:03 AM CDT 9:59 PM CDT
Moon 11:40 PM CDT (5/28) 9:35 AM CDT (5/28)
Length of Visible Light 15h 22m
Length of Day
14h 23m
Waning Gibbous, 82% of the Moon is Illuminated
May 28
Waning Gibbous
May 31
Last Quarter
Jun 8
New
Jun 16
First Quarter
Jun 23
Full

Hourly Weather History & Observations

Time (CDT) Temp. Heat Index Dew Point Humidity Pressure Visibility Wind Dir Wind Speed Gust Speed Precip Events Conditions
12:15 AM 73.4 °F - 64.4 °F 73% 29.92 in 10.0 mi South 16.1 mph - N/A   Clear
12:35 AM 73.4 °F - 64.4 °F 73% 29.91 in 10.0 mi South 16.1 mph 23.0 mph N/A   Clear
12:55 AM 73.4 °F - 64.4 °F 73% 29.91 in 10.0 mi South 17.3 mph 21.9 mph N/A   Clear
1:15 AM 73.4 °F - 64.4 °F 73% 29.90 in 10.0 mi South 16.1 mph 24.2 mph N/A   Clear
1:35 AM 73.4 °F - 66.2 °F 78% 29.91 in 10.0 mi South 15.0 mph - N/A   Clear
1:55 AM 73.4 °F - 66.2 °F 78% 29.90 in 10.0 mi South 16.1 mph 23.0 mph N/A   Clear
2:15 AM 73.4 °F - 66.2 °F 78% 29.90 in 10.0 mi South 16.1 mph 19.6 mph N/A   Clear
2:35 AM 73.4 °F - 66.2 °F 78% 29.90 in 10.0 mi South 16.1 mph - N/A   Clear
2:55 AM 73.4 °F - 66.2 °F 78% 29.90 in 10.0 mi South 16.1 mph - N/A   Clear
3:15 AM 73.4 °F - 66.2 °F 78% 29.90 in 10.0 mi South 13.8 mph - N/A   Clear
3:35 AM 71.6 °F - 66.2 °F 83% 29.89 in 10.0 mi South 15.0 mph - N/A   Clear
3:55 AM 71.6 °F - 66.2 °F 83% 29.89 in 10.0 mi South 12.7 mph 23.0 mph N/A   Clear
4:15 AM 71.6 °F - 66.2 °F 83% 29.89 in 10.0 mi South 16.1 mph - N/A   Clear
4:35 AM 71.6 °F - 66.2 °F 83% 29.91 in 10.0 mi South 13.8 mph - N/A   Clear
4:55 AM 71.6 °F - 66.2 °F 83% 29.91 in 10.0 mi South 15.0 mph 19.6 mph N/A   Clear
5:15 AM 71.6 °F - 66.2 °F 83% 29.92 in 10.0 mi South 17.3 mph 20.7 mph N/A   Clear
5:35 AM 71.6 °F - 66.2 °F 83% 29.93 in 10.0 mi South 13.8 mph - N/A   Clear
5:55 AM 71.6 °F - 66.2 °F 83% 29.94 in 10.0 mi South 16.1 mph - N/A   Clear
6:15 AM 71.6 °F - 66.2 °F 83% 29.94 in 10.0 mi South 15.0 mph - N/A   Clear
6:35 AM 71.6 °F - 66.2 °F 83% 29.95 in 10.0 mi South 16.1 mph 19.6 mph N/A   Clear
6:55 AM 71.6 °F - 66.2 °F 83% 29.96 in 10.0 mi South 15.0 mph 18.4 mph N/A   Clear
7:15 AM 71.6 °F - 66.2 °F 83% 29.97 in 10.0 mi South 17.3 mph 23.0 mph N/A   Clear
7:35 AM 71.6 °F - 66.2 °F 83% 29.99 in 10.0 mi South 15.0 mph 20.7 mph N/A   Clear
7:55 AM 73.4 °F - 66.2 °F 78% 30.00 in 10.0 mi South 17.3 mph - N/A   Clear
8:15 AM 73.4 °F - 68.0 °F 83% 30.00 in 10.0 mi South 18.4 mph 24.2 mph N/A   Mostly Cloudy
8:35 AM 75.2 °F - 68.0 °F 78% 29.99 in 10.0 mi South 18.4 mph 26.5 mph N/A   Scattered Clouds
8:55 AM 75.2 °F - 68.0 °F 78% 29.99 in 10.0 mi South 21.9 mph 28.8 mph N/A   Scattered Clouds
9:15 AM 77.0 °F - 68.0 °F 74% 30.00 in 10.0 mi South 20.7 mph 28.8 mph N/A   Partly Cloudy
9:35 AM 78.8 °F - 68.0 °F 69% 29.99 in 10.0 mi SSW 20.7 mph 26.5 mph N/A   Mostly Cloudy
9:55 AM 77.0 °F - 66.2 °F 69% 29.99 in 10.0 mi SSW 19.6 mph 27.6 mph N/A   Mostly Cloudy
10:15 AM 78.8 °F - 66.2 °F 65% 29.98 in 10.0 mi South 20.7 mph 27.6 mph N/A   Mostly Cloudy
10:35 AM 80.6 °F 82.7 °F 66.2 °F 61% 29.98 in 10.0 mi SSW 20.7 mph - N/A   Scattered Clouds
10:55 AM 80.6 °F 82.7 °F 66.2 °F 61% 29.98 in 10.0 mi South 23.0 mph 35.7 mph N/A   Partly Cloudy
11:15 AM 80.6 °F 82.7 °F 66.2 °F 61% 29.98 in 10.0 mi South 24.2 mph 27.6 mph N/A   Clear
11:35 AM 82.4 °F 84.6 °F 66.2 °F 58% 29.97 in 10.0 mi South 21.9 mph 29.9 mph N/A   Clear
11:55 AM 82.4 °F 84.6 °F 66.2 °F 58% 29.97 in 10.0 mi SSW 25.3 mph 31.1 mph N/A   Clear
12:15 PM 84.2 °F 86.6 °F 66.2 °F 55% 29.96 in 10.0 mi South 24.2 mph 32.2 mph N/A   Clear
12:35 PM 84.2 °F 85.6 °F 64.4 °F 51% 29.96 in 10.0 mi South 25.3 mph 31.1 mph N/A   Clear
12:55 PM 84.2 °F 85.6 °F 64.4 °F 51% 29.97 in 10.0 mi SSW 23.0 mph 31.1 mph N/A   Clear
1:15 PM 84.2 °F 85.6 °F 64.4 °F 51% 29.96 in 10.0 mi SSW 21.9 mph 27.6 mph N/A   Clear
1:35 PM 84.2 °F 85.6 °F 64.4 °F 51% 29.96 in 10.0 mi South 21.9 mph 28.8 mph N/A   Clear
1:55 PM 86.0 °F 87.3 °F 64.4 °F 48% 29.96 in 10.0 mi SSW 17.3 mph 27.6 mph N/A   Clear
2:15 PM 86.0 °F 87.3 °F 64.4 °F 48% 29.96 in 10.0 mi SSW 18.4 mph 28.8 mph N/A   Clear
2:35 PM 86.0 °F 87.3 °F 64.4 °F 48% 29.95 in 10.0 mi South 21.9 mph 28.8 mph N/A   Clear
2:56 PM 87.8 °F 89.4 °F 64.4 °F 46% 29.95 in 10.0 mi South 19.6 mph 27.6 mph N/A   Clear
3:15 PM 87.8 °F 88.5 °F 62.6 °F 43% 29.94 in 10.0 mi South 24.2 mph 29.9 mph N/A   Clear
3:35 PM 87.8 °F 88.5 °F 62.6 °F 43% 29.93 in 10.0 mi SSW 20.7 mph 28.8 mph N/A   Clear
3:55 PM 87.8 °F 88.5 °F 62.6 °F 43% 29.93 in 10.0 mi South 24.2 mph 29.9 mph N/A   Clear
4:15 PM 87.8 °F 87.6 °F 60.8 °F 40% 29.92 in 10.0 mi South 24.2 mph 28.8 mph N/A   Clear
4:35 PM 87.8 °F 88.5 °F 62.6 °F 43% 29.91 in 10.0 mi South 25.3 mph 29.9 mph N/A   Clear
4:55 PM 87.8 °F 88.5 °F 62.6 °F 43% 29.91 in 10.0 mi South 23.0 mph 29.9 mph N/A   Clear
5:15 PM 87.8 °F 88.5 °F 62.6 °F 43% 29.90 in 10.0 mi South 19.6 mph 31.1 mph N/A   Clear
5:35 PM 87.8 °F 88.5 °F 62.6 °F 43% 29.91 in 10.0 mi South 17.3 mph 28.8 mph N/A   Clear
5:55 PM 86.0 °F 86.6 °F 62.6 °F 45% 29.91 in 10.0 mi SSW 19.6 mph 27.6 mph N/A   Clear
6:15 PM 86.0 °F 86.6 °F 62.6 °F 45% 29.90 in 10.0 mi SSW 23.0 mph - N/A   Clear
6:35 PM 84.2 °F 85.6 °F 64.4 °F 51% 29.91 in 10.0 mi South 16.1 mph - N/A   Scattered Clouds
6:55 PM 84.2 °F 85.6 °F 64.4 °F 51% 29.91 in 10.0 mi South 19.6 mph 24.2 mph N/A   Partly Cloudy
7:15 PM 82.4 °F 84.6 °F 66.2 °F 58% 29.91 in 10.0 mi South 17.3 mph 21.9 mph N/A   Clear
7:35 PM 82.4 °F 83.9 °F 64.4 °F 54% 29.91 in 10.0 mi South 15.0 mph - N/A   Clear
7:55 PM 80.6 °F 82.3 °F 64.4 °F 58% 29.91 in 10.0 mi South 12.7 mph - N/A   Clear
8:15 PM 80.6 °F 82.3 °F 64.4 °F 58% 29.91 in 10.0 mi South 11.5 mph - N/A   Clear
8:35 PM 78.8 °F - 64.4 °F 61% 29.91 in 10.0 mi South 11.5 mph - N/A   Clear
8:55 PM 78.8 °F - 64.4 °F 61% 29.91 in 10.0 mi South 11.5 mph - N/A   Clear
9:15 PM 77.0 °F - 64.4 °F 65% 29.92 in 10.0 mi South 11.5 mph - N/A   Clear
9:35 PM 75.2 °F - 62.6 °F 65% 29.91 in 10.0 mi South 10.4 mph - N/A   Clear
9:55 PM 75.2 °F - 64.4 °F 69% 29.93 in 10.0 mi SSE 9.2 mph - N/A   Clear
10:16 PM 75.2 °F - 64.4 °F 69% 29.93 in 10.0 mi SSE 9.2 mph - N/A   Clear
10:35 PM 73.4 °F - 64.4 °F 73% 29.94 in 9.0 mi SSE 10.4 mph - N/A   Clear
10:55 PM 75.2 °F - 62.6 °F 65% 29.94 in 10.0 mi South 15.0 mph - N/A   Clear
11:15 PM 75.2 °F - 60.8 °F 61% 29.94 in 10.0 mi South 11.5 mph - N/A   Clear
11:35 PM 73.4 °F - 62.6 °F 69% 29.95 in 10.0 mi South 11.5 mph - N/A   Clear
11:55 PM 73.4 °F - 62.6 °F 69% 29.95 in 10.0 mi South 10.4 mph - N/A   Clear